Location: ??????????
(42.1626°N, 44.1160°E)
Time: 11:27:55
(UTC+00:00)

Cosmos 1271 Rocket - Pass Details

Date: 03 March 2021
Orbit: 498 x 544 km, 81.2° (Epoch: 20 April)

Event Time Altitude Azimuth Distance (km) Brightness Sun altitude
Rises 15:18:32 0° 351° (N) 2,599 6.3 -5.0°
Reaches altitude 10° 15:20:40 10° 353° (N) 1,712 5.4 -5.4°
Maximum altitude 15:24:24 77° 79° (E) 519 2.6 -6.1°
Drops below altitude 10° 15:28:09 10° 167° (SSE) 1,710 5.2 -6.8°
Sets 15:30:17 0° 169° (SSE) 2,595 6.2 -7.2°
